Wind_Speed
3 3 3 3 2 2 3 4 4 1 1 2 2 3 3 3 4 6 6 6 7 8 8 8 8 9 8 6 7 7 7 6 8 8 9 9 9 10
7 5 5 4 3 4 4 5 6 5 4 5 5 6 7 6 8 9 8 10 11 11 12 13 16 18 15 12 11 12 13 13 12 12 13 13 13 14
5 5 6 6 6 7 7 8 7 7 8 9 11 12 11 11 12 12 11 10 11 14 15 15 16 13 13 16 17 18 18 17 17 16 17 17 18 18
8 8 8 9 10 10 12 12 13 13 12 13 13 15 16 15 15 14 13 15 16 15 17 17 17 17 20 16 19 21 22 22 20 22 23 23 24 24
10 10 11 11 10 11 13 15 16 16 16 17 17 17 19 21 20 18 20 20 21 22 21 21 21 21 21 23 23 23 25 26 27 29 29 29 29 30
13 13 15 15 13 15 16 16 17 18 18 19 19 18 18 21 23 24 25 25 27 27 26 26 26 25 25 26 27 31 32 31 32 34 33 34 35 36
17 17 17 18 18 18 18 17 19 20 19 19 20 22 22 23 27 27 29 30 30 31 32 32 31 30 30 32 33 33 33 32 32 32 34 36 38 39
21 21 21 22 23 22 22 22 23 23 22 23 25 26 30 32 31 31 33 34 34 33 31 33 32 33 37 36 37 36 36 35 37 39 41 42 43 44
26 26 25 25 26 26 25 26 26 27 28 28 29 31 31 32 33 33 34 37 35 36 38 35 38 38 41 37 38 39 38 39 40 41 42 42 44 46
27 28 27 28 28 29 29 31 33 33 33 34 34 35 35 35 34 35 35 34 33 34 34 31 36 39 37 34 37 40 40 38 43 46 48 51 53 51
31 31 31 29 31 33 35 35 36 37 38 35 37 37 35 34 33 32 32 33 34 34 34 34 35 36 39 35 37 42 45 51 50 50 53 53 59 56
36 33 32 32 32 33 35 36 38 36 37 37 32 31 32 32 33 32 31 32 33 33 34 35 37 36 36 44 49 53 55 62 59 56 56 55 55 55
37 33 35 35 39 35 33 35 34 35 34 33 32 33 34 33 32 35 35 36 35 37 37 37 39 40 41 45 52 56 56 55 54 53 52 52 52 52
43 39 38 36 39 38 36 35 32 32 31 31 32 32 33 35 36 37 38 38 39 40 39 40 40 41 42 45 47 48 49 51 51 52 53 54 56 57
42 43 41 40 37 35 30 28 28 30 31 33 35 36 36 36 37 37 38 39 39 40 41 41 42 42 44 45 47 48 50 52 54 55 56 55 55 56
49 50 42 40 28 27 27 28 30 33 35 35 36 36 37 37 38 38 38 37 38 39 41 42 44 45 47 48 49 51 53 53 53 53 54 55 56 57
36 30 22 24 29 29 29 29 29 31 34 34 35 35 37 36 36 37 38 39 39 41 42 44 46 47 47 48 49 51 53 53 53 54 56 56 56 56
18 17 21 25 27 27 25 26 30 33 34 35 35 34 35 35 36 37 38 40 41 42 44 45 46 47 49 50 52 52 52 53 55 56 56 57 58 58
19 19 21 23 26 31 33 31 32 34 36 35 35 35 36 35 36 38 40 42 43 43 44 45 48 50 51 52 52 53 54 55 55 56 57 58 57 57
26 29 31 33 32 33 32 32 33 34 34 34 35 38 38 39 39 40 41 42 43 44 46 48 49 50 51 51 53 54 54 55 57 58 57 56 55 54
27 29 29 29 30 31 32 31 32 32 33 34 35 36 37 39 40 41 41 43 44 45 47 48 48 50 52 53 53 54 56 57 57 56 55 55 54 52
31 30 29 29 30 31 31 32 32 32 33 33 35 36 37 37 38 41 43 44 45 46 46 48 51 52 52 53 54 55 56 56 55 54 53 52 50 49
30 30 29 29 31 31 31 29 29 31 33 34 35 36 37 39 40 42 44 45 45 46 49 50 51 51 53 53 53 53 53 53 52 51 52 50 50 49
Wind_Direction
174 165 185 201 258 293 300 300 294 323 323 309 301 293 321 328 317 308 303 293 295 297 299 303 305 295 286 279 280 281 272 270 278 279 276 276 272 270
200 215 217 241 271 280 287 275 280 290 292 291 291 297 300 294 298 305 308 310 299 299 294 302 299 299 272 277 275 277 279 280 274 271 268 262 261 262
226 241 252 256 260 265 272 278 285 280 279 282 288 289 293 298 303 297 291 301 301 303 297 298 303 309 292 289 287 288 288 284 278 272 270 270 268 265
225 232 246 257 268 272 276 277 276 277 279 283 287 291 293 297 300 298 299 304 306 301 297 286 293 285 283 287 287 293 287 278 277 280 276 272 270 271
238 249 252 252 261 273 276 277 277 278 281 284 291 294 296 303 302 299 296 297 299 299 298 291 288 289 287 285 286 286 284 283 276 282 276 272 272 275
255 261 263 269 273 276 277 276 279 279 282 284 285 285 289 294 292 288 288 290 291 291 289 288 288 286 283 286 286 290 289 285 281 279 276 271 269 275
260 262 265 269 275 275 271 275 276 278 283 286 286 281 280 288 295 289 284 282 284 286 287 287 286 286 286 286 285 288 290 287 283 280 273 273 273 276
258 260 262 266 272 276 278 276 274 275 279 283 285 287 286 289 287 284 286 287 287 285 284 286 288 286 290 287 288 287 283 281 280 281 280 277 277 277
257 260 262 267 271 275 277 277 277 275 281 285 284 283 283 285 288 287 286 287 288 288 289 286 283 291 287 287 283 281 281 280 281 280 278 280 280 282
263 265 267 273 277 278 281 278 277 278 278 280 283 284 284 283 288 287 290 290 291 291 290 284 279 283 289 289 286 280 281 281 285 284 285 286 287 283
258 261 264 269 277 282 284 278 281 284 285 284 288 288 287 289 289 288 291 290 290 291 294 292 293 289 290 281 287 280 281 284 287 289 288 288 286 288
258 263 268 269 277 280 280 280 281 280 282 287 287 288 288 290 291 292 293 294 295 296 296 293 295 286 286 273 280 283 286 287 294 290 289 288 286 287
260 261 269 270 280 277 280 282 282 284 285 286 287 290 292 293 293 293 292 292 292 293 293 290 290 289 284 283 279 282 286 291 292 292 292 292 292 292
258 264 266 279 278 270 278 281 282 282 284 286 286 287 288 290 291 292 292 293 294 294 291 289 288 287 286 285 285 287 289 290 292 293 294 294 294 294
252 261 266 274 271 274 274 277 280 283 287 288 289 289 289 290 291 294 294 295 294 293 294 294 293 292 292 293 294 295 295 296 296 296 296 296 296 296
264 265 262 261 263 262 268 273 279 282 284 287 289 292 294 295 294 293 293 292 293 294 295 295 295 296 296 296 295 296 297 298 298 297 297 298 297 297
254 251 254 260 263 266 270 275 282 287 290 293 293 292 291 291 292 294 295 297 296 296 297 297 296 295 295 296 299 300 300 300 300 300 299 299 298 297
245 255 261 267 272 274 279 285 289 294 296 294 293 291 292 293 295 296 296 295 294 294 296 297 297 298 300 301 302 301 301 301 301 301 301 300 299 298
265 268 265 267 270 276 283 289 292 292 292 291 292 293 294 293 293 293 293 293 295 298 299 299 301 302 303 303 303 302 302 301 300 301 301 300 300 299
271 270 276 282 286 285 284 285 285 286 288 290 292 292 292 293 293 293 295 297 299 301 302 302 302 303 304 304 303 303 302 302 303 303 302 301 300 299
276 277 277 279 280 281 283 283 285 289 291 292 292 293 294 294 294 295 297 299 300 302 304 304 304 305 305 305 305 305 305 305 304 303 302 300 299 298
279 278 279 280 282 283 285 288 289 291 293 293 293 293 293 295 298 300 302 303 303 304 304 305 307 307 307 306 306 305 305 305 304 304 303 302 300 298
274 278 281 284 286 287 288 290 291 292 293 295 296 298 301 303 302 303 304 305 306 305 306 307 308 309 309 308 308 308 308 308 307 306 304 303 301 299
Height
5935 5935 5935 5936 5936 5935 5935 5936 5935 5933 5933 5932 5932 5932 5931 5930 5930 5928 5927 5925 5924 5922 5921 5920 5919 5917 5916 5915 5914 5914 5912 5911 5910 5909 5908 5908 5906 5905
5934 5934 5934 5935 5935 5934 5934 5935 5934 5933 5933 5932 5932 5931 5930 5929 5927 5926 5925 5923 5922 5921 5920 5918 5916 5915 5913 5913 5912 5910 5909 5908 5907 5906 5905 5904 5902 5901
5931 5931 5932 5933 5933 5933 5932 5933 5932 5931 5931 5930 5930 5929 5928 5926 5925 5924 5922 5920 5919 5918 5916 5915 5913 5912 5911 5910 5908 5907 5906 5904 5903 5901 5900 5899 5897 5896
5929 5929 5930 5931 5930 5930 5930 5930 5929 5928 5928 5926 5926 5925 5923 5922 5920 5919 5918 5917 5915 5914 5912 5911 5909 5907 5906 5904 5903 5901 5900 5898 5897 5896 5895 5894 5892 5891
5925 5927 5928 5929 5928 5928 5927 5927 5926 5925 5924 5922 5921 5920 5917 5916 5915 5914 5913 5912 5910 5908 5906 5905 5903 5902 5900 5899 5897 5895 5894 5892 5891 5889 5888 5886 5884 5882
5922 5923 5924 5924 5924 5924 5923 5922 5921 5920 5919 5918 5917 5916 5914 5912 5910 5909 5907 5905 5904 5901 5900 5898 5897 5895 5893 5891 5890 5888 5886 5885 5883 5881 5878 5876 5875 5873
5918 5918 5919 5918 5918 5918 5918 5917 5916 5915 5914 5913 5912 5910 5909 5907 5905 5903 5901 5899 5897 5894 5892 5891 5888 5887 5886 5884 5882 5879 5877 5874 5872 5871 5869 5867 5865 5863
5913 5913 5914 5914 5913 5913 5913 5912 5911 5909 5908 5907 5906 5904 5902 5900 5899 5897 5895 5892 5890 5886 5884 5881 5879 5878 5876 5873 5871 5869 5867 5864 5862 5860 5859 5857 5854 5851
5906 5907 5908 5907 5907 5906 5906 5905 5905 5903 5901 5899 5898 5895 5893 5891 5889 5887 5885 5883 5880 5877 5874 5871 5870 5867 5866 5863 5859 5858 5856 5853 5850 5848 5846 5843 5839 5836
5899 5899 5900 5900 5900 5899 5897 5896 5896 5894 5893 5891 5889 5886 5884 5881 5879 5877 5875 5872 5870 5867 5865 5862 5860 5857 5855 5852 5849 5846 5843 5841 5839 5836 5832 5829 5825 5822
5892 5892 5892 5892 5892 5891 5889 5888 5887 5885 5883 5881 5879 5877 5874 5872 5869 5866 5864 5862 5859 5857 5855 5853 5850 5848 5845 5842 5840 5835 5832 5828 5825 5822 5819 5815 5811 5807
5884 5885 5885 5884 5882 5881 5879 5878 5877 5875 5874 5872 5870 5868 5866 5863 5860 5857 5855 5853 5850 5848 5845 5844 5840 5837 5835 5831 5826 5822 5818 5813 5808 5807 5803 5799 5795 5791
5874 5875 5875 5874 5873 5872 5870 5868 5867 5865 5863 5862 5861 5859 5857 5855 5852 5850 5847 5844 5841 5837 5833 5830 5827 5823 5820 5817 5813 5809 5804 5800 5796 5792 5787 5783 5779 5775
5865 5865 5865 5864 5863 5863 5861 5859 5857 5856 5854 5853 5851 5849 5847 5844 5842 5839 5837 5833 5830 5827 5823 5819 5816 5812 5808 5804 5800 5796 5792 5787 5782 5778 5773 5768 5764 5761
5853 5854 5855 5855 5854 5852 5851 5849 5849 5848 5847 5845 5843 5840 5837 5834 5831 5827 5825 5822 5818 5815 5811 5808 5804 5800 5796 5792 5788 5783 5777 5773 5768 5763 5758 5753 5748 5744
5840 5842 5842 5843 5842 5842 5841 5840 5839 5839 5837 5835 5833 5830 5827 5824 5821 5817 5813 5810 5806 5804 5800 5797 5793 5789 5784 5780 5775 5770 5764 5759 5753 5747 5742 5736 5731 5726
5829 5829 5831 5833 5834 5832 5832 5830 5829 5828 5827 5825 5822 5819 5816 5812 5809 5806 5802 5799 5796 5792 5789 5784 5780 5775 5771 5766 5761 5754 5749 5743 5737 5731 5725 5719 5714 5709
5818 5820 5824 5825 5826 5825 5823 5821 5820 5819 5817 5814 5811 5807 5803 5800 5798 5794 5790 5787 5784 5780 5776 5772 5767 5762 5758 5753 5746 5740 5734 5728 5723 5716 5710 5704 5697 5692
5811 5814 5815 5816 5816 5816 5814 5812 5810 5807 5805 5802 5799 5796 5793 5789 5786 5783 5779 5775 5772 5767 5763 5758 5754 5748 5741 5736 5733 5726 5720 5713 5707 5701 5695 5688 5681 5675
5808 5808 5808 5807 5805 5804 5803 5800 5798 5797 5794 5791 5788 5786 5783 5779 5775 5772 5768 5764 5760 5755 5750 5746 5740 5735 5729 5722 5716 5711 5704 5698 5691 5685 5678 5671 5665 5659
5800 5800 5798 5797 5796 5795 5792 5790 5788 5786 5783 5781 5778 5775 5772 5768 5765 5762 5757 5753 5749 5743 5737 5732 5726 5720 5714 5708 5702 5694 5688 5682 5675 5668 5662 5656 5650 5644
5792 5792 5789 5787 5786 5785 5782 5780 5779 5776 5774 5771 5769 5765 5762 5758 5753 5749 5744 5740 5735 5730 5724 5719 5713 5707 5700 5694 5687 5680 5673 5666 5660 5652 5647 5641 5635 5629
5782 5781 5781 5780 5779 5778 5777 5774 5771 5768 5765 5762 5759 5755 5750 5746 5742 5737 5733 5726 5722 5718 5712 5705 5699 5692 5686 5679 5672 5665 5658 5651 5644 5638 5630 5627 5620 5615